TimeEST,TemperatureF,Dew PointF,Humidity,Sea Level PressureIn,VisibilityMPH,Wind Direction,Wind SpeedMPH,Gust SpeedMPH,PrecipitationIn,Events,Conditions,WindDirDegrees,DateUTC
12:15 AM,10.4,5.0,79,30.09,10.0,WSW,5.8,-,N/A,,Clear,250,2013-12-16 05:15:00
12:35 AM,10.4,5.0,79,30.09,10.0,WSW,5.8,-,N/A,,Clear,240,2013-12-16 05:35:00
12:55 AM,10.4,5.0,79,30.09,10.0,WSW,4.6,-,N/A,,Clear,240,2013-12-16 05:55:00
1:15 AM,10.4,5.0,79,30.09,10.0,WSW,5.8,-,N/A,,Mostly Cloudy,240,2013-12-16 06:15:00
1:35 AM,10.4,5.0,79,30.10,10.0,WSW,6.9,-,N/A,,Mostly Cloudy,250,2013-12-16 06:35:00
1:55 AM,10.4,5.0,79,30.10,10.0,WSW,5.8,-,N/A,,Overcast,240,2013-12-16 06:55:00
2:15 AM,12.2,5.0,73,30.10,10.0,WSW,5.8,-,N/A,,Overcast,250,2013-12-16 07:15:00
2:35 AM,12.2,5.0,73,30.10,10.0,WSW,4.6,-,N/A,,Overcast,240,2013-12-16 07:35:00
2:55 AM,12.2,5.0,73,30.10,7.0,SW,4.6,-,N/A,Snow,Light Snow,230,2013-12-16 07:55:00
3:15 AM,12.2,6.8,79,30.10,5.0,West,4.6,-,N/A,Snow,Light Snow,260,2013-12-16 08:15:00
3:35 AM,12.2,6.8,79,30.10,7.0,SW,3.5,-,N/A,,Overcast,230,2013-12-16 08:35:00
3:55 AM,12.2,8.6,85,30.10,4.0,SW,3.5,-,N/A,Snow,Light Snow,230,2013-12-16 08:55:00
4:15 AM,12.2,8.6,85,30.10,4.0,WSW,3.5,-,N/A,Snow,Light Snow,250,2013-12-16 09:15:00
4:35 AM,12.2,8.6,85,30.10,2.5,Calm,Calm,-,N/A,Snow,Light Snow,0,2013-12-16 09:35:00
4:55 AM,12.2,8.6,85,30.10,2.5,Calm,Calm,-,N/A,Snow,Light Snow,0,2013-12-16 09:55:00
5:15 AM,12.2,8.6,85,30.10,3.0,Calm,Calm,-,N/A,Snow,Light Snow,0,2013-12-16 10:15:00
5:35 AM,12.2,8.6,85,30.10,3.0,Calm,Calm,-,N/A,Snow,Light Snow,0,2013-12-16 10:35:00
5:55 AM,12.2,8.6,85,30.10,4.0,Calm,Calm,-,N/A,Snow,Light Snow,0,2013-12-16 10:55:00
6:15 AM,12.2,8.6,85,30.10,7.0,Calm,Calm,-,N/A,Snow,Light Snow,0,2013-12-16 11:15:00
6:35 AM,12.2,8.6,85,30.11,7.0,Calm,Calm,-,N/A,,Mostly Cloudy,0,2013-12-16 11:35:00
6:55 AM,12.2,8.6,85,30.10,10.0,Calm,Calm,-,N/A,,Overcast,0,2013-12-16 11:55:00
7:15 AM,12.2,8.6,85,30.11,7.0,Calm,Calm,-,N/A,,Overcast,0,2013-12-16 12:15:00
7:35 AM,12.2,8.6,85,30.12,7.0,Calm,Calm,-,N/A,,Scattered Clouds,0,2013-12-16 12:35:00
7:55 AM,10.4,8.6,92,30.12,7.0,Calm,Calm,-,N/A,,Clear,0,2013-12-16 12:55:00
8:15 AM,10.4,8.6,92,30.12,7.0,Calm,Calm,-,N/A,,Clear,0,2013-12-16 13:15:00
8:35 AM,8.6,6.8,92,30.12,5.0,Calm,Calm,-,N/A,,Clear,0,2013-12-16 13:35:00
8:55 AM,8.6,5.0,85,30.12,4.0,Calm,Calm,-,N/A,,Clear,0,2013-12-16 13:55:00
9:15 AM,10.4,6.8,85,30.12,5.0,Calm,Calm,-,N/A,,Clear,0,2013-12-16 14:15:00
9:35 AM,10.4,8.6,92,30.13,7.0,Calm,Calm,-,N/A,,Scattered Clouds,0,2013-12-16 14:35:00
9:55 AM,14.0,10.4,86,30.14,7.0,Calm,Calm,-,N/A,,Overcast,0,2013-12-16 14:55:00
10:15 AM,14.0,10.4,86,30.14,7.0,Calm,Calm,-,N/A,,Overcast,0,2013-12-16 15:15:00
10:35 AM,14.0,10.4,86,30.15,7.0,Calm,Calm,-,N/A,,Overcast,0,2013-12-16 15:35:00
10:55 AM,17.6,10.4,73,30.14,10.0,Calm,Calm,-,N/A,,Overcast,0,2013-12-16 15:55:00
11:15 AM,17.6,10.4,73,30.14,10.0,SE,3.5,-,N/A,,Overcast,130,2013-12-16 16:15:00
11:35 AM,17.6,12.2,79,30.13,10.0,East,4.6,-,N/A,,Overcast,100,2013-12-16 16:35:00
11:55 AM,19.4,12.2,74,30.11,10.0,ESE,8.1,-,N/A,,Overcast,120,2013-12-16 16:55:00
12:15 PM,19.4,12.2,74,30.10,10.0,ESE,5.8,-,N/A,,Overcast,110,2013-12-16 17:15:00
12:35 PM,19.4,12.2,74,30.10,10.0,ESE,8.1,-,N/A,,Overcast,110,2013-12-16 17:35:00
12:55 PM,19.4,12.2,74,30.10,10.0,SE,4.6,-,N/A,,Overcast,130,2013-12-16 17:55:00
1:15 PM,19.4,12.2,74,30.09,10.0,SE,5.8,-,N/A,,Overcast,130,2013-12-16 18:15:00
1:35 PM,21.2,10.4,63,30.08,10.0,SE,6.9,-,N/A,,Overcast,130,2013-12-16 18:35:00
1:55 PM,21.2,12.2,68,30.07,10.0,ESE,5.8,-,N/A,,Overcast,120,2013-12-16 18:55:00
2:15 PM,21.2,12.2,68,30.06,10.0,East,8.1,-,N/A,,Overcast,100,2013-12-16 19:15:00
2:35 PM,21.2,12.2,68,30.06,10.0,ESE,5.8,-,N/A,,Overcast,110,2013-12-16 19:35:00
2:55 PM,21.2,12.2,68,30.05,10.0,ESE,8.1,-,N/A,,Overcast,110,2013-12-16 19:55:00
3:15 PM,21.2,12.2,68,30.03,10.0,ESE,8.1,-,N/A,,Overcast,120,2013-12-16 20:15:00
3:35 PM,21.2,12.2,68,30.03,10.0,ESE,5.8,-,N/A,,Overcast,120,2013-12-16 20:35:00
3:55 PM,21.2,12.2,68,30.03,10.0,SE,6.9,-,N/A,,Scattered Clouds,130,2013-12-16 20:55:00
4:15 PM,21.2,12.2,68,30.03,10.0,SE,5.8,-,N/A,,Mostly Cloudy,130,2013-12-16 21:15:00
4:35 PM,21.2,12.2,68,30.04,10.0,SE,8.1,-,N/A,,Overcast,130,2013-12-16 21:35:00
4:55 PM,21.2,12.2,68,30.03,10.0,SE,6.9,-,N/A,,Overcast,140,2013-12-16 21:55:00
5:15 PM,21.2,12.2,68,30.03,10.0,SE,5.8,-,N/A,,Overcast,140,2013-12-16 22:15:00
5:35 PM,21.2,14.0,74,30.03,10.0,SE,4.6,-,N/A,,Overcast,140,2013-12-16 22:35:00
5:55 PM,19.4,14.0,80,30.03,5.0,SE,5.8,-,N/A,Snow,Light Snow,130,2013-12-16 22:55:00
6:15 PM,19.4,14.0,80,30.04,1.8,SE,4.6,-,N/A,Snow,Light Snow,130,2013-12-16 23:15:00
6:35 PM,19.4,15.8,86,30.03,1.0,ESE,4.6,-,N/A,Snow,Snow,120,2013-12-16 23:35:00
6:55 PM,19.4,17.6,93,30.03,0.8,ESE,4.6,-,N/A,Snow,Snow,110,2013-12-16 23:55:00
7:15 PM,19.4,17.6,93,30.04,1.5,East,3.5,-,0.01,Snow,Light Snow,100,2013-12-17 00:15:00
7:35 PM,19.4,17.6,93,30.02,0.8,East,3.5,-,0.02,Snow,Snow,100,2013-12-17 00:35:00
7:55 PM,19.4,15.8,86,30.02,1.8,East,4.6,-,0.02,Snow,Light Snow,100,2013-12-17 00:55:00
8:15 PM,19.4,15.8,86,30.03,2.0,East,3.5,-,N/A,Snow,Light Snow,100,2013-12-17 01:15:00
8:35 PM,19.4,15.8,86,30.03,3.0,Calm,Calm,-,N/A,Snow,Light Snow,0,2013-12-17 01:35:00
8:55 PM,19.4,15.8,86,30.01,4.0,East,3.5,-,0.01,,Overcast,90,2013-12-17 01:55:00
9:15 PM,19.4,15.8,86,30.01,7.0,Calm,Calm,-,N/A,Snow,Light Snow,0,2013-12-17 02:15:00
9:35 PM,19.4,15.8,86,30.01,3.0,Calm,Calm,-,N/A,Snow,Light Snow,0,2013-12-17 02:35:00
9:55 PM,19.4,15.8,86,30.00,7.0,Calm,Calm,-,0.01,,Overcast,0,2013-12-17 02:55:00
10:15 PM,19.4,15.8,86,30.00,7.0,Calm,Calm,-,N/A,,Overcast,0,2013-12-17 03:15:00
10:35 PM,19.4,15.8,86,30.00,7.0,Calm,Calm,-,0.01,,Overcast,0,2013-12-17 03:35:00
10:55 PM,19.4,15.8,86,30.00,7.0,Calm,Calm,-,0.01,,Overcast,0,2013-12-17 03:55:00
11:15 PM,19.4,17.6,93,30.00,5.0,Calm,Calm,-,N/A,,Overcast,0,2013-12-17 04:15:00
11:35 PM,19.4,17.6,93,30.00,4.0,Calm,Calm,-,N/A,,Overcast,0,2013-12-17 04:35:00
11:55 PM,19.4,17.6,93,30.01,2.0,West,4.6,-,N/A,,Overcast,270,2013-12-17 04:55:00